Beverly, MA

7:26 PM EDT on April 23, 2018 (GMT -0400)
Beverly Municipal

Weather History for KBVY - November, 2012

Change the Weather History Date:

Monday, November 19, 2012

  Actual Average Record
Temperature  
Mean Temperature 37 °F -  
Max Temperature 48 °F 48 °F 66 °F (1985)
Min Temperature 26 °F 32 °F 19 °F (2005)
Degree Days  
Heating Degree Days 28    
Moisture  
Dew Point 30 °F    
Average Humidity 72    
Maximum Humidity 89    
Minimum Humidity 60    
Precipitation  
Precipitation 0.00 in - - ()
Sea Level Pressure  
Sea Level Pressure 30.45 in    
Wind  
Wind Speed 5 mph (North)    
Max Wind Speed 9 mph    
Max Gust Speed -    
Visibility 10 miles    
Events      
Averages and records for this station are not official NWS values.
T = Trace of Precipitation, MM = Missing Value Source: NWS Daily Summary

Daily Weather History Graph

Daily Weather History Graph

Search for Another Location

Airport or City:

Astronomy

Nov. 19, 2012 Rise Set
Actual Time 6:40 AM EST 4:17 PM EST
Civil Twilight 6:09 AM EST 4:48 PM EST
Nautical Twilight 5:35 AM EST 5:22 PM EST
Astronomical Twilight 5:01 AM EST 5:56 PM EST
Moon 11:38 AM EST (11/19) 10:44 PM EST (11/19)
Length of Visible Light 10h 38m
Length of Day
9h 36m
Waxing Crescent, 40% of the Moon is Illuminated
Nov 19
Waxing Crescent
Nov 20
First Quarter
Nov 28
Full
Dec 6
Last Quarter
Dec 13
New

Hourly Weather History & Observations

Time (EST) Temp. Windchill Dew Point Humidity Pressure Visibility Wind Dir Wind Speed Gust Speed Precip Events Conditions
12:53 AM 30.9 °F 25.2 °F 24.1 °F 76% 30.60 in 10.0 mi North 5.8 mph - N/A   Clear
1:53 AM 30.9 °F 26.2 °F 21.9 °F 69% 30.59 in 10.0 mi North 4.6 mph - N/A   Clear
2:20 AM 30.2 °F 24.3 °F 23.0 °F 75% 30.59 in 10.0 mi North 5.8 mph - N/A   Mostly Cloudy
2:53 AM 28.9 °F 22.8 °F 23.0 °F 78% 30.58 in 10.0 mi NNW 5.8 mph - N/A   Mostly Cloudy
3:53 AM 28.9 °F 22.8 °F 21.9 °F 75% 30.56 in 10.0 mi North 5.8 mph - N/A   Mostly Cloudy
4:02 AM 26.6 °F 21.2 °F 21.2 °F 80% 30.56 in 10.0 mi North 4.6 mph - N/A   Scattered Clouds
4:34 AM 30.2 °F 24.3 °F 21.2 °F 69% 30.56 in 10.0 mi North 5.8 mph - N/A   Mostly Cloudy
4:53 AM 30.9 °F 25.2 °F 21.9 °F 69% 30.56 in 10.0 mi North 5.8 mph - N/A   Overcast
5:53 AM 30.0 °F 25.2 °F 21.0 °F 69% 30.54 in 10.0 mi North 4.6 mph - N/A   Clear
6:53 AM 30.2 °F 21.9 °F 21.2 °F 69% 30.54 in 10.0 mi North 9.2 mph - N/A   Clear
7:53 AM 33.1 °F 27.7 °F 21.9 °F 64% 30.54 in 10.0 mi North 5.8 mph - N/A   Clear
8:53 AM 37.9 °F 32.7 °F 25.0 °F 60% 30.53 in 10.0 mi North 6.9 mph - N/A   Clear
9:53 AM 44.1 °F 39.0 °F 30.9 °F 60% 30.51 in 10.0 mi North 9.2 mph - N/A   Clear
10:53 AM 46.0 °F 42.5 °F 33.1 °F 61% 30.49 in 10.0 mi ENE 6.9 mph - N/A   Clear
11:53 AM 48.0 °F - 35.1 °F 61% 30.45 in 10.0 mi NE 5.8 mph - N/A   Clear
12:39 PM 46.4 °F 42.4 °F 35.6 °F 66% 30.44 in 10.0 mi North 8.1 mph - N/A   Mostly Cloudy
12:50 PM 46.4 °F 43.5 °F 35.6 °F 66% 30.44 in 10.0 mi NNE 5.8 mph - N/A   Scattered Clouds
12:53 PM 46.9 °F - 35.1 °F 63% 30.43 in 10.0 mi NE 4.6 mph - N/A   Scattered Clouds
1:05 PM 46.4 °F 43.5 °F 35.6 °F 66% 30.43 in 10.0 mi NNE 5.8 mph - N/A   Mostly Cloudy
1:12 PM 46.4 °F 43.5 °F 35.6 °F 66% 30.43 in 10.0 mi NNE 5.8 mph - N/A   Scattered Clouds
1:22 PM 46.4 °F 44.3 °F 35.6 °F 66% 30.42 in 10.0 mi Variable 4.6 mph - N/A   Mostly Cloudy
1:53 PM 46.9 °F - 35.1 °F 63% 30.40 in 10.0 mi ENE 4.6 mph - N/A   Overcast
2:53 PM 46.0 °F 43.1 °F 36.0 °F 68% 30.40 in 10.0 mi NNE 5.8 mph - N/A   Overcast
3:53 PM 44.1 °F 40.8 °F 35.1 °F 71% 30.38 in 10.0 mi North 5.8 mph - N/A   Mostly Cloudy
4:18 PM 42.8 °F 40.1 °F 35.6 °F 76% 30.38 in 10.0 mi North 4.6 mph - N/A   Partly Cloudy
4:31 PM 42.8 °F 40.1 °F 35.6 °F 76% 30.38 in 10.0 mi NNW 4.6 mph - N/A   Mostly Cloudy
4:53 PM 41.0 °F 39.0 °F 35.1 °F 79% 30.37 in 10.0 mi NNW 3.5 mph - N/A   Mostly Cloudy
5:06 PM 42.8 °F 40.1 °F 35.6 °F 76% 30.37 in 10.0 mi NNW 4.6 mph - N/A   Scattered Clouds
5:53 PM 41.0 °F 38.0 °F 34.0 °F 76% 30.36 in 10.0 mi NNW 4.6 mph - N/A   Scattered Clouds
6:53 PM 37.0 °F 34.5 °F 33.1 °F 86% 30.35 in 10.0 mi North 3.5 mph - N/A   Clear
7:53 PM 33.1 °F - 30.0 °F 89% 30.33 in 10.0 mi Calm Calm - N/A   Clear
8:53 PM 30.9 °F 26.2 °F 28.0 °F 89% 30.31 in 8.0 mi North 4.6 mph - N/A   Clear
10:53 PM 30.9 °F - 28.0 °F 89% 30.27 in 8.0 mi Calm Calm - N/A   Clear
11:53 PM 30.9 °F 27.5 °F 28.0 °F 89% 30.26 in 7.0 mi NNW 3.5 mph - N/A   Clear